,,Stat5,,Stat1,,Stat2,,Stat3,,Stat4,,Wind1,,Wind1,
time,status,PA1M_AVG,status,PR1M_SUM,status,RH1M_AVG,status,SR1M_AVG,status,TA1M_AVG,status,W1dAve1m,status,W1sAve1m,
2002-01-03, 00:00:00,VALID,920.239,VALID,0,VALID,86.7031,VALID,-0.0339617,VALID,20.7102,VALID,110,VALID,1.46832,
2002-01-03, 00:01:00,VALID,920.227,VALID,0,VALID,86.8226,VALID,-0.0169808,VALID,20.7005,VALID,104,VALID,1.18638,
2002-01-03, 00:02:00,VALID,920.199,VALID,0,VALID,86.9116,VALID,-0.0169808,VALID,20.6774,VALID,115,VALID,1.17399,
2002-01-03, 00:03:00,VALID,920.18,VALID,0,VALID,87.0388,VALID,-0.0339617,VALID,20.6779,VALID,101,VALID,0.704564,
2002-01-03, 00:04:00,VALID,920.167,VALID,0,VALID,87.1164,VALID,-0.0509425,VALID,20.6714,VALID,91,VALID,1.1117,
2002-01-03, 00:05:00,VALID,920.147,VALID,0,VALID,87.2817,VALID,-0.0169808,VALID,20.6488,VALID,96,VALID,1.34354,
2002-01-03, 00:06:00,VALID,920.104,VALID,0,VALID,87.447,VALID,-0.0339617,VALID,20.6098,VALID,131,VALID,1.37661,
2002-01-03, 00:07:00,VALID,920.081,VALID,0,VALID,87.5195,VALID,-0.0339617,VALID,20.5879,VALID,141,VALID,1.04434,
2002-01-03, 00:08:00,VALID,920.049,VALID,0,VALID,87.5703,VALID,0,VALID,20.578,VALID,131,VALID,1.06771,
2002-01-03, 00:09:00,VALID,920.016,VALID,0,VALID,87.5716,VALID,0,VALID,20.568,VALID,150,VALID,1.75697,
2002-01-03, 00:10:00,VALID,920.029,VALID,0,VALID,87.5602,VALID,-0.0339617,VALID,20.561,VALID,125,VALID,1.41892,
2002-01-03, 00:11:00,VALID,920.038,VALID,0,VALID,87.4381,VALID,-0.0169808,VALID,20.5745,VALID,120,VALID,1.77441,
2002-01-03, 00:12:00,VALID,919.998,VALID,0,VALID,87.315,VALID,0,VALID,20.6084,VALID,133,VALID,1.57832,
2002-01-03, 00:13:00,VALID,919.998,VALID,0,VALID,87.3554,VALID,0,VALID,20.607,VALID,140,VALID,0.907422,
2002-01-03, 00:14:00,VALID,919.998,VALID,0,VALID,87.4406,VALID,-0.0169808,VALID,20.5904,VALID,141,VALID,1.37562,
2002-01-03, 00:15:00,VALID,919.991,VALID,0,VALID,87.4648,VALID,0,VALID,20.5871,VALID,131,VALID,1.23711,
2002-01-03, 00:16:00,VALID,919.978,VALID,0,VALID,87.6174,VALID,-0.0169808,VALID,20.5839,VALID,117,VALID,1.42708,
2002-01-03, 00:17:00,VALID,919.973,VALID,0,VALID,87.7763,VALID,0,VALID,20.5486,VALID,134,VALID,1.30215,
2002-01-03, 00:18:00,VALID,919.975,VALID,0,VALID,87.8297,VALID,0.0169808,VALID,20.5419,VALID,135,VALID,1.15728,
2002-01-03, 00:19:00,VALID,919.954,VALID,0,VALID,87.8157,VALID,0,VALID,20.5354,VALID,143,VALID,1.66719,
2002-01-03, 00:20:00,VALID,919.937,VALID,0,VALID,87.8285,VALID,0,VALID,20.5389,VALID,116,VALID,1.58313,
2002-01-03, 00:21:00,VALID,919.911,VALID,0,VALID,87.8272,VALID,0,VALID,20.5489,VALID,132,VALID,1.55215,
2002-01-03, 00:22:00,VALID,919.885,VALID,0,VALID,87.8602,VALID,0,VALID,20.5419,VALID,116,VALID,1.10465,
2002-01-03, 00:23:00,VALID,919.877,VALID,0,VALID,87.9569,VALID,-0.0169808,VALID,20.5228,VALID,126,VALID,1.26895,
2002-01-03, 00:24:00,VALID,919.865,VALID,0,VALID,87.9671,VALID,0,VALID,20.5163,VALID,127,VALID,1.36498,
2002-01-03, 00:25:00,VALID,919.855,VALID,0,VALID,87.7827,VALID,0,VALID,20.4999,VALID,137,VALID,1.39023,
2002-01-03, 00:26:00,VALID,919.826,VALID,0,VALID,87.6924,VALID,0,VALID,20.5131,VALID,145,VALID,1.16797,
2002-01-03, 00:27:00,VALID,919.812,VALID,0,VALID,87.6644,VALID,0,VALID,20.523,VALID,133,VALID,1.50547,
2002-01-03, 00:28:00,VALID,919.801,VALID,0,VALID,87.5919,VALID,0,VALID,20.5457,VALID,131,VALID,1.72095,
2002-01-03, 00:29:00,VALID,919.818,VALID,0,VALID,87.5449,VALID,0,VALID,20.5656,VALID,139,VALID,0.954297,
2002-01-03, 00:30:00,VALID,919.837,VALID,0,VALID,87.0477,VALID,-0.0169808,VALID,20.5812,VALID,142,VALID,1.74013,
2002-01-03, 00:31:00,VALID,919.815,VALID,0,VALID,87.0197,VALID,-0.0339617,VALID,20.6103,VALID,119,VALID,1.67266,
2002-01-03, 00:32:00,VALID,919.792,VALID,0,VALID,87.0375,VALID,-0.0509425,VALID,20.6297,VALID,124,VALID,1.63081,
2002-01-03, 00:33:00,VALID,919.763,VALID,0,VALID,86.7857,VALID,0,VALID,20.627,VALID,146,VALID,1.47148,
2002-01-03, 00:34:00,VALID,919.747,VALID,0,VALID,86.7756,VALID,0,VALID,20.6197,VALID,123,VALID,1.191,
2002-01-03, 00:35:00,VALID,919.742,VALID,0,VALID,86.4971,VALID,-0.0509425,VALID,20.62,VALID,144,VALID,1.65547,
2002-01-03, 00:36:00,VALID,919.722,VALID,0,VALID,86.5174,VALID,0,VALID,20.6324,VALID,115,VALID,1.33634,
2002-01-03, 00:37:00,VALID,919.74,VALID,0,VALID,86.6484,VALID,0,VALID,20.6361,VALID,117,VALID,1.2043,
2002-01-03, 00:38:00,VALID,919.728,VALID,0,VALID,86.4157,VALID,0,VALID,20.6229,VALID,123,VALID,2.05016,
2002-01-03, 00:39:00,VALID,919.719,VALID,0,VALID,86.3229,VALID,0,VALID,20.62,VALID,132,VALID,1.58516,
2002-01-03, 00:40:00,VALID,919.703,VALID,0,VALID,86.4475,VALID,0,VALID,20.6264,VALID,130,VALID,1.3768,
2002-01-03, 00:41:00,VALID,919.698,VALID,0,VALID,86.5556,VALID,0,VALID,20.6232,VALID,122,VALID,1.05625,
2002-01-03, 00:42:00,VALID,919.696,VALID,0,VALID,86.6878,VALID,0.0169808,VALID,20.6006,VALID,133,VALID,1.17558,
2002-01-03, 00:43:00,VALID,919.68,VALID,0,VALID,86.7272,VALID,0,VALID,20.5777,VALID,119,VALID,1.3125,
2002-01-03, 00:44:00,VALID,919.648,VALID,0,VALID,86.4742,VALID,0,VALID,20.5879,VALID,127,VALID,1.81631,
2002-01-03, 00:45:00,VALID,919.626,VALID,0,VALID,86.361,VALID,0.0169808,VALID,20.6038,VALID,125,VALID,1.45352,
2002-01-03, 00:46:00,VALID,919.589,VALID,0,VALID,86.3432,VALID,-0.0169808,VALID,20.6135,VALID,140,VALID,1.51933,
2002-01-03, 00:47:00,VALID,919.552,VALID,0,VALID,86.2364,VALID,0,VALID,20.5901,VALID,118,VALID,2.09766,
2002-01-03, 00:48:00,VALID,919.504,VALID,0,VALID,85.9439,VALID,-0.0339617,VALID,20.614,VALID,124,VALID,1.503,
2002-01-03, 00:49:00,VALID,919.465,VALID,0,VALID,85.668,VALID,0,VALID,20.6068,VALID,130,VALID,1.65137,
2002-01-03, 00:50:00,VALID,919.442,VALID,0,VALID,85.4239,VALID,0,VALID,20.6332,VALID,135,VALID,1.87932,
2002-01-03, 00:51:00,VALID,919.461,VALID,0,VALID,85.1441,VALID,-0.0169808,VALID,20.6391,VALID,136,VALID,2.38496,
2002-01-03, 00:52:00,VALID,919.439,VALID,0,VALID,85.1899,VALID,-0.101885,VALID,20.6673,VALID,121,VALID,1.6857,
2002-01-03, 00:53:00,VALID,919.449,VALID,0,VALID,85.2738,VALID,-0.118866,VALID,20.6442,VALID,119,VALID,1.81367,
2002-01-03, 00:54:00,VALID,919.436,VALID,0,VALID,85.3755,VALID,-0.101885,VALID,20.6213,VALID,113,VALID,1.83779,
2002-01-03, 00:55:00,VALID,919.456,VALID,0,VALID,85.3348,VALID,-0.118866,VALID,20.6086,VALID,100,VALID,1.53027,
2002-01-03, 00:56:00,VALID,919.444,VALID,0,VALID,85.4696,VALID,-0.152827,VALID,20.5957,VALID,96,VALID,1.59595,
2002-01-03, 00:57:00,VALID,919.456,VALID,0,VALID,85.6756,VALID,-0.118866,VALID,20.5529,VALID,99,VALID,1.46465,
2002-01-03, 00:58:00,VALID,919.443,VALID,0,VALID,85.3348,VALID,-0.135847,VALID,20.5413,VALID,108,VALID,2.29852,
2002-01-03, 00:59:00,VALID,919.413,VALID,0,VALID,85.4302,VALID,-0.118866,VALID,20.5833,VALID,92,VALID,1.56348,
2002-01-03, 01:00:00,VALID,919.405,VALID,0,VALID,85.4302,VALID,-0.101885,VALID,20.5798,VALID,107,VALID,1.19511,
2002-01-03, 01:01:00,VALID,919.406,VALID,0,VALID,85.4518,VALID,-0.101885,VALID,20.5698,VALID,110,VALID,1.50078,
2002-01-03, 01:02:00,VALID,919.401,VALID,0,VALID,85.5065,VALID,-0.118866,VALID,20.5666,VALID,99,VALID,1.45662,
2002-01-03, 01:03:00,VALID,919.421,VALID,0,VALID,85.4607,VALID,-0.118866,VALID,20.5572,VALID,97,VALID,1.92344,
2002-01-03, 01:04:00,VALID,919.403,VALID,0,VALID,85.4836,VALID,-0.101885,VALID,20.5407,VALID,95,VALID,1.86178,
2002-01-03, 01:05:00,VALID,919.387,VALID,0,VALID,85.1619,VALID,-0.101885,VALID,20.5278,VALID,107,VALID,2.09648,
2002-01-03, 01:06:00,VALID,919.374,VALID,0,VALID,85.2535,VALID,-0.101885,VALID,20.5432,VALID,100,VALID,1.45724,
2002-01-03, 01:07:00,VALID,919.354,VALID,0,VALID,85.242,VALID,-0.0509425,VALID,20.5362,VALID,92,VALID,1.91738,
2002-01-03, 01:08:00,VALID,919.333,VALID,0,VALID,85.5472,VALID,-0.0339617,VALID,20.5333,VALID,102,VALID,1.33874,
2002-01-03, 01:09:00,VALID,919.325,VALID,0,VALID,85.6756,VALID,-0.0339617,VALID,20.5071,VALID,101,VALID,1.00098,
2002-01-03, 01:10:00,VALID,919.293,VALID,0,VALID,85.6477,VALID,0,VALID,20.4848,VALID,93,VALID,1.72656,
2002-01-03, 01:11:00,VALID,919.291,VALID,0,VALID,85.0436,VALID,-0.0339617,VALID,20.4945,VALID,85,VALID,3.28672,
2002-01-03, 01:12:00,VALID,919.255,VALID,0,VALID,84.9699,VALID,-0.0339617,VALID,20.5648,VALID,126,VALID,2.22276,
2002-01-03, 01:13:00,VALID,919.286,VALID,0,VALID,85.0004,VALID,0,VALID,20.5645,VALID,112,VALID,1.64473,
2002-01-03, 01:14:00,VALID,919.287,VALID,0,VALID,84.7944,VALID,0,VALID,20.5616,VALID,101,VALID,1.78639,
2002-01-03, 01:15:00,VALID,919.287,VALID,0,VALID,84.8643,VALID,0,VALID,20.5849,VALID,126,VALID,1.58828,
2002-01-03, 01:16:00,VALID,919.308,VALID,0,VALID,84.4409,VALID,-0.0169808,VALID,20.5882,VALID,135,VALID,1.39283,
2002-01-03, 01:17:00,VALID,919.297,VALID,0,VALID,84.5795,VALID,-0.0339617,VALID,20.607,VALID,106,VALID,1.51621,
2002-01-03, 01:18:00,VALID,919.298,VALID,0,VALID,84.4358,VALID,-0.0339617,VALID,20.6138,VALID,108,VALID,1.68873,
2002-01-03, 01:19:00,VALID,919.279,VALID,0,VALID,84.2794,VALID,0,VALID,20.6235,VALID,129,VALID,1.62617,
2002-01-03, 01:20:00,VALID,919.27,VALID,0,VALID,84.0734,VALID,-0.0169808,VALID,20.6364,VALID,109,VALID,1.54447,
2002-01-03, 01:21:00,VALID,919.265,VALID,0,VALID,83.6996,VALID,0,VALID,20.6649,VALID,117,VALID,1.89063,
2002-01-03, 01:22:00,VALID,919.238,VALID,0,VALID,83.3727,VALID,0.0849042,VALID,20.7288,VALID,107,VALID,2.51563,
2002-01-03, 01:23:00,VALID,919.255,VALID,0,VALID,83.3626,VALID,0.0679233,VALID,20.7614,VALID,100,VALID,1.84238,
2002-01-03, 01:24:00,VALID,919.239,VALID,0,VALID,83.3562,VALID,0.0849042,VALID,20.7638,VALID,106,VALID,1.87159,
2002-01-03, 01:25:00,VALID,919.233,VALID,0,VALID,83.3282,VALID,0.0509425,VALID,20.7641,VALID,104,VALID,2.0541,
2002-01-03, 01:26:00,VALID,919.242,VALID,0,VALID,83.2901,VALID,0.0849042,VALID,20.7606,VALID,103,VALID,1.92044,
2002-01-03, 01:27:00,VALID,919.232,VALID,0,VALID,83.0676,VALID,0.0679233,VALID,20.7705,VALID,106,VALID,2.39668,
2002-01-03, 01:28:00,VALID,919.205,VALID,0,VALID,83.0994,VALID,0.0849042,VALID,20.7735,VALID,83,VALID,1.82532,
2002-01-03, 01:29:00,VALID,919.187,VALID,0,VALID,83.3054,VALID,0.0339617,VALID,20.7835,VALID,87,VALID,1.52559,
2002-01-03, 01:30:00,VALID,919.159,VALID,0,VALID,83.6105,VALID,0.101885,VALID,20.7541,VALID,75,VALID,1.56332,
2002-01-03, 01:31:00,VALID,919.131,VALID,0,VALID,83.566,VALID,0.0849042,VALID,20.7089,VALID,101,VALID,2.41055,
2002-01-03, 01:32:00,VALID,919.147,VALID,0,VALID,83.4274,VALID,0.0849042,VALID,20.7051,VALID,87,VALID,3.05389,
2002-01-03, 01:33:00,VALID,919.13,VALID,0,VALID,83.0332,VALID,0.0849042,VALID,20.767,VALID,101,VALID,3.02734,
2002-01-03, 01:34:00,VALID,919.119,VALID,0,VALID,83.0917,VALID,0.0509425,VALID,20.7894,VALID,101,VALID,2.33429,
2002-01-03, 01:35:00,VALID,919.1,VALID,0,VALID,83.0574,VALID,0.0509425,VALID,20.8023,VALID,71,VALID,3.17578,
2002-01-03, 01:36:00,VALID,919.078,VALID,0,VALID,82.9506,VALID,0.0679233,VALID,20.8314,VALID,83,VALID,3.53005,
2002-01-03, 01:37:00,VALID,919.046,VALID,0,VALID,82.8781,VALID,0.0849042,VALID,20.8578,VALID,61,VALID,2.98223,
2002-01-03, 01:38:00,VALID,919.068,VALID,0,VALID,83.1222,VALID,0.101885,VALID,20.8575,VALID,75,VALID,1.86164,
2002-01-03, 01:39:00,VALID,919.094,VALID,0,VALID,83.2837,VALID,0.0849042,VALID,20.8185,VALID,92,VALID,2.01504,
2002-01-03, 01:40:00,VALID,919.091,VALID,0,VALID,83.3677,VALID,0.0849042,VALID,20.7959,VALID,99,VALID,1.9351,
2002-01-03, 01:41:00,VALID,919.092,VALID,0,VALID,83.594,VALID,0.0849042,VALID,20.7668,VALID,85,VALID,2.14785,
2002-01-03, 01:42:00,VALID,919.083,VALID,0,VALID,83.6805,VALID,0.101885,VALID,20.735,VALID,131,VALID,1.65337,
2002-01-03, 01:43:00,VALID,919.081,VALID,0,VALID,83.6919,VALID,0.0849042,VALID,20.7054,VALID,144,VALID,1.75605,
2002-01-03, 01:44:00,VALID,919.084,VALID,0,VALID,83.7911,VALID,0.0679233,VALID,20.689,VALID,127,VALID,1.71575,
2002-01-03, 01:45:00,VALID,919.1,VALID,0,VALID,83.8928,VALID,0.101885,VALID,20.6639,VALID,113,VALID,1.60234,
2002-01-03, 01:46:00,VALID,919.124,VALID,0,VALID,84.1306,VALID,0.101885,VALID,20.612,VALID,114,VALID,1.16077,
2002-01-03, 01:47:00,VALID,919.142,VALID,0,VALID,84.1357,VALID,0.0849042,VALID,20.5926,VALID,86,VALID,1.94414,
2002-01-03, 01:48:00,VALID,919.151,VALID,0,VALID,84.2947,VALID,0.0679233,VALID,20.5861,VALID,76,VALID,1.54367,
2002-01-03, 01:49:00,VALID,919.169,VALID,0,VALID,84.3735,VALID,0.0509425,VALID,20.5737,VALID,93,VALID,1.70273,
2002-01-03, 01:50:00,VALID,919.17,VALID,0,VALID,84.6825,VALID,0.0849042,VALID,20.5339,VALID,108,VALID,1.21916,
2002-01-03, 01:51:00,VALID,919.172,VALID,0,VALID,84.8287,VALID,0.0509425,VALID,20.4986,VALID,86,VALID,1.3248,
2002-01-03, 01:52:00,VALID,919.178,VALID,0,VALID,84.7423,VALID,-0.0339617,VALID,20.4813,VALID,96,VALID,1.58514,
2002-01-03, 01:53:00,VALID,919.186,VALID,0,VALID,84.6253,VALID,-0.0339617,VALID,20.4974,VALID,122,VALID,1.04199,
2002-01-03, 01:54:00,VALID,919.201,VALID,0,VALID,84.7524,VALID,-0.0169808,VALID,20.4972,VALID,68,VALID,1.88076,
2002-01-03, 01:55:00,VALID,919.221,VALID,0,VALID,84.6558,VALID,-0.0169808,VALID,20.4775,VALID,100,VALID,2.07949,
2002-01-03, 01:56:00,VALID,919.225,VALID,0,VALID,84.7423,VALID,0,VALID,20.4942,VALID,86,VALID,1.91046,
2002-01-03, 01:57:00,VALID,919.211,VALID,0,VALID,84.2247,VALID,0,VALID,20.4972,VALID,86,VALID,2.01406,
2002-01-03, 01:58:00,VALID,919.188,VALID,0,VALID,84.0683,VALID,-0.0339617,VALID,20.5357,VALID,101,VALID,1.94757,
2002-01-03, 01:59:00,VALID,919.2,VALID,0,VALID,84.0976,VALID,-0.0169808,VALID,20.5683,VALID,105,VALID,1.67871,
2002-01-03, 02:00:00,VALID,919.176,VALID,0,VALID,83.9081,VALID,-0.0169808,VALID,20.568,VALID,108,VALID,1.501,
2002-01-03, 02:01:00,VALID,919.171,VALID,0,VALID,83.6525,VALID,-0.0339617,VALID,20.5906,VALID,105,VALID,1.35117,
2002-01-03, 02:02:00,VALID,919.167,VALID,0,VALID,83.3791,VALID,-0.0509425,VALID,20.6041,VALID,121,VALID,2.17331,
2002-01-03, 02:03:00,VALID,919.154,VALID,0,VALID,83.4885,VALID,0,VALID,20.6073,VALID,93,VALID,1.6959,
2002-01-03, 02:04:00,VALID,919.153,VALID,0,VALID,83.8115,VALID,-0.0169808,VALID,20.5847,VALID,96,VALID,1.4387,
2002-01-03, 02:05:00,VALID,919.146,VALID,0,VALID,83.6805,VALID,0,VALID,20.5489,VALID,107,VALID,1.90469,
2002-01-03, 02:06:00,VALID,919.131,VALID,0,VALID,83.6741,VALID,-0.0339617,VALID,20.5357,VALID,117,VALID,2.47944,
2002-01-03, 02:07:00,VALID,919.135,VALID,0,VALID,83.608,VALID,-0.0679233,VALID,20.5532,VALID,114,VALID,2.40215,
2002-01-03, 02:08:00,VALID,919.153,VALID,0,VALID,83.4885,VALID,-0.101885,VALID,20.5564,VALID,125,VALID,2.08994,
2002-01-03, 02:09:00,VALID,919.129,VALID,0,VALID,83.5432,VALID,-0.0849042,VALID,20.5696,VALID,101,VALID,1.38574,
2002-01-03, 02:10:00,VALID,919.12,VALID,0,VALID,83.7504,VALID,-0.101885,VALID,20.5569,VALID,93,VALID,2.0442,
2002-01-03, 02:11:00,VALID,919.089,VALID,0,VALID,83.917,VALID,-0.0679233,VALID,20.5141,VALID,111,VALID,1.55449,
2002-01-03, 02:12:00,VALID,919.083,VALID,0,VALID,84.0912,VALID,-0.0849042,VALID,20.489,VALID,116,VALID,1.94932,
2002-01-03, 02:13:00,VALID,919.063,VALID,0,VALID,83.9742,VALID,-0.101885,VALID,20.4788,VALID,125,VALID,2.15781,
2002-01-03, 02:14:00,VALID,919.049,VALID,0,VALID,83.9666,VALID,-0.0679233,VALID,20.4853,VALID,104,VALID,2.02837,
2002-01-03, 02:15:00,VALID,919.039,VALID,0,VALID,83.8076,VALID,-0.101885,VALID,20.4888,VALID,125,VALID,1.99961,
2002-01-03, 02:16:00,VALID,919.065,VALID,0,VALID,83.8712,VALID,-0.0849042,VALID,20.4729,VALID,72,VALID,1.44251,
2002-01-03, 02:17:00,VALID,919.066,VALID,0,VALID,83.9195,VALID,-0.101885,VALID,20.4729,VALID,106,VALID,1.65645,
2002-01-03, 02:18:00,VALID,919.059,VALID,0,VALID,83.8547,VALID,-0.118866,VALID,20.4597,VALID,109,VALID,2.19449,
2002-01-03, 02:19:00,VALID,919.032,VALID,0,VALID,83.9297,VALID,-0.101885,VALID,20.4764,VALID,91,VALID,1.66016,
2002-01-03, 02:20:00,VALID,919.011,VALID,0,VALID,83.9475,VALID,-0.101885,VALID,20.4532,VALID,104,VALID,1.75561,
2002-01-03, 02:21:00,VALID,919.01,VALID,0,VALID,84.184,VALID,-0.0679233,VALID,20.4311,VALID,98,VALID,1.61973,
2002-01-03, 02:22:00,VALID,919.002,VALID,0,VALID,84.4651,VALID,0,VALID,20.3779,VALID,119,VALID,1.24137,
2002-01-03, 02:23:00,VALID,918.998,VALID,0,VALID,84.6329,VALID,0,VALID,20.3324,VALID,114,VALID,1.39063,
2002-01-03, 02:24:00,VALID,918.989,VALID,0,VALID,84.8542,VALID,0,VALID,20.3071,VALID,107,VALID,1.54728,
2002-01-03, 02:25:00,VALID,918.993,VALID,0,VALID,85.0589,VALID,0,VALID,20.2681,VALID,111,VALID,1.92324,
2002-01-03, 02:26:00,VALID,919.004,VALID,0,VALID,85.0157,VALID,0,VALID,20.2551,VALID,112,VALID,1.40419,
2002-01-03, 02:27:00,VALID,919.015,VALID,0,VALID,84.9648,VALID,0,VALID,20.2285,VALID,73,VALID,2.38906,
2002-01-03, 02:28:00,VALID,919.035,VALID,0,VALID,85.1149,VALID,-0.0169808,VALID,20.2258,VALID,103,VALID,1.76322,
2002-01-03, 02:29:00,VALID,919.03,VALID,0,VALID,85.2573,VALID,-0.0339617,VALID,20.2166,VALID,113,VALID,1.3625,
2002-01-03, 02:30:00,VALID,919.026,VALID,0,VALID,85.2382,VALID,0,VALID,20.1937,VALID,122,VALID,1.1986,
2002-01-03, 02:31:00,VALID,919.007,VALID,0,VALID,85.2522,VALID,0,VALID,20.187,VALID,88,VALID,1.18945,
2002-01-03, 02:32:00,VALID,919.008,VALID,0,VALID,85.5141,VALID,-0.0169808,VALID,20.1619,VALID,106,VALID,1.57572,
2002-01-03, 02:33:00,VALID,919.007,VALID,0,VALID,85.5942,VALID,-0.0169808,VALID,20.1353,VALID,117,VALID,1.20332,
2002-01-03, 02:34:00,VALID,918.992,VALID,0,VALID,85.7201,VALID,-0.0169808,VALID,20.1299,VALID,122,VALID,1.04482,
2002-01-03, 02:35:00,VALID,918.982,VALID,0,VALID,85.5637,VALID,0,VALID,20.0968,VALID,98,VALID,1.95938,
2002-01-03, 02:36:00,VALID,918.975,VALID,0,VALID,84.7296,VALID,0,VALID,20.1816,VALID,90,VALID,2.50321,
2002-01-03, 02:37:00,VALID,918.993,VALID,0,VALID,84.6291,VALID,-0.0169808,VALID,20.2454,VALID,101,VALID,1.71354,
2002-01-03, 02:38:00,VALID,919.011,VALID,0,VALID,84.6227,VALID,-0.0169808,VALID,20.2621,VALID,90,VALID,1.478,
2002-01-03, 02:39:00,VALID,919.004,VALID,0,VALID,84.6889,VALID,0,VALID,20.2624,VALID,110,VALID,1.40625,
2002-01-03, 02:40:00,VALID,919.006,VALID,0,VALID,84.755,VALID,-0.0169808,VALID,20.2295,VALID,111,VALID,1.32853,
2002-01-03, 02:41:00,VALID,919.029,VALID,0,VALID,84.6126,VALID,-0.0169808,VALID,20.2425,VALID,113,VALID,1.75371,
2002-01-03, 02:42:00,VALID,919.023,VALID,0,VALID,84.5223,VALID,-0.0509425,VALID,20.2656,VALID,111,VALID,1.3715,
2002-01-03, 02:43:00,VALID,919.014,VALID,0,VALID,84.591,VALID,-0.0169808,VALID,20.2686,VALID,125,VALID,1.2416,
2002-01-03, 02:44:00,VALID,919.013,VALID,0,VALID,84.5808,VALID,0.0169808,VALID,20.2554,VALID,119,VALID,1.59295,
2002-01-03, 02:45:00,VALID,919.006,VALID,0,VALID,84.7321,VALID,0,VALID,20.229,VALID,106,VALID,1.17656,
2002-01-03, 02:46:00,VALID,919.005,VALID,0,VALID,84.7003,VALID,-0.0509425,VALID,20.2201,VALID,117,VALID,1.1176,
2002-01-03, 02:47:00,VALID,918.993,VALID,0,VALID,84.8059,VALID,0,VALID,20.2268,VALID,114,VALID,1.13945,
2002-01-03, 02:48:00,VALID,919,VALID,0,VALID,84.4714,VALID,0,VALID,20.2228,VALID,122,VALID,1.97115,
2002-01-03, 02:49:00,VALID,918.976,VALID,0,VALID,84.4447,VALID,-0.0339617,VALID,20.2947,VALID,101,VALID,1.33574,
2002-01-03, 02:50:00,VALID,918.955,VALID,0,VALID,84.6634,VALID,-0.0169808,VALID,20.2686,VALID,121,VALID,1.50041,
2002-01-03, 02:51:00,VALID,918.946,VALID,0,VALID,84.7029,VALID,-0.0169808,VALID,20.2494,VALID,109,VALID,1.66133,
2002-01-03, 02:52:00,VALID,918.918,VALID,0,VALID,84.9661,VALID,0,VALID,20.2233,VALID,113,VALID,1.61218,
2002-01-03, 02:53:00,VALID,918.906,VALID,0,VALID,85.1149,VALID,-0.0169808,VALID,20.1808,VALID,132,VALID,1.37129,
2002-01-03, 02:54:00,VALID,918.89,VALID,0,VALID,85.2967,VALID,0,VALID,20.1388,VALID,113,VALID,1.44613,
2002-01-03, 02:55:00,VALID,918.888,VALID,0,VALID,85.3552,VALID,-0.0339617,VALID,20.1103,VALID,125,VALID,1.28457,
2002-01-03, 02:56:00,VALID,918.885,VALID,0,VALID,85.7061,VALID,0,VALID,20.064,VALID,114,VALID,1.40565,
2002-01-03, 02:57:00,VALID,918.881,VALID,0,VALID,86.1906,VALID,0,VALID,20.0069,VALID,98,VALID,1.11992,
2002-01-03, 02:58:00,VALID,918.902,VALID,0,VALID,86.3521,VALID,0.0169808,VALID,19.9415,VALID,106,VALID,2.50144,
2002-01-03, 02:59:00,VALID,918.899,VALID,0,VALID,86.2122,VALID,0,VALID,19.9616,VALID,128,VALID,1.11992,
2002-01-03, 03:00:00,VALID,918.902,VALID,0,VALID,86.3216,VALID,-0.0169808,VALID,19.9549,VALID,125,VALID,1.74038,
2002-01-03, 03:01:00,VALID,918.881,VALID,0,VALID,86.5937,VALID,0,VALID,19.936,VALID,111,VALID,1.09316,
2002-01-03, 03:02:00,VALID,918.87,VALID,0,VALID,87.0261,VALID,0.0169808,VALID,19.8707,VALID,124,VALID,1.54276,
2002-01-03, 03:03:00,VALID,918.87,VALID,0,VALID,87.3961,VALID,0.0169808,VALID,19.8192,VALID,129,VALID,1.82773,
2002-01-03, 03:04:00,VALID,918.865,VALID,0,VALID,87.6797,VALID,0,VALID,19.7713,VALID,103,VALID,1.54808,
2002-01-03, 03:05:00,VALID,918.854,VALID,0,VALID,87.8285,VALID,0,VALID,19.7554,VALID,124,VALID,1.44414,
2002-01-03, 03:06:00,VALID,918.862,VALID,0,VALID,87.9683,VALID,-0.0169808,VALID,19.7159,VALID,112,VALID,1.26172,
2002-01-03, 03:07:00,VALID,918.876,VALID,0,VALID,88.2417,VALID,0,VALID,19.6873,VALID,139,VALID,1.34336,
2002-01-03, 03:08:00,VALID,918.871,VALID,0,VALID,88.388,VALID,0,VALID,19.6615,VALID,132,VALID,0.863782,
2002-01-03, 03:09:00,VALID,918.89,VALID,0,VALID,88.6868,VALID,0,VALID,19.6125,VALID,117,VALID,1.14473,
2002-01-03, 03:10:00,VALID,918.894,VALID,0,VALID,89.0034,VALID,-0.0169808,VALID,19.5516,VALID,133,VALID,0.787418,
2002-01-03, 03:11:00,VALID,918.88,VALID,0,VALID,89.2081,VALID,0,VALID,19.4965,VALID,133,VALID,0.867188,
2002-01-03, 03:12:00,VALID,918.906,VALID,0,VALID,89.1573,VALID,0.0339617,VALID,19.4676,VALID,130,VALID,1.40705,
2002-01-03, 03:13:00,VALID,918.921,VALID,0,VALID,88.9945,VALID,0.0169808,VALID,19.4771,VALID,133,VALID,0.801562,
2002-01-03, 03:14:00,VALID,918.923,VALID,0,VALID,89.1039,VALID,0.0169808,VALID,19.4418,VALID,146,VALID,1,
2002-01-03, 03:15:00,VALID,918.905,VALID,0,VALID,89.1891,VALID,0,VALID,19.4224,VALID,141,VALID,1.47461,
2002-01-03, 03:16:00,VALID,918.888,VALID,0,VALID,89.3162,VALID,0,VALID,19.4033,VALID,136,VALID,1.30869,
2002-01-03, 03:17:00,VALID,918.88,VALID,0,VALID,89.3162,VALID,-0.0339617,VALID,19.3871,VALID,124,VALID,1.40645,
2002-01-03, 03:18:00,VALID,918.871,VALID,0,VALID,89.3633,VALID,0,VALID,19.3876,VALID,129,VALID,1.72965,
2002-01-03, 03:19:00,VALID,918.88,VALID,0,VALID,89.259,VALID,-0.0169808,VALID,19.374,VALID,118,VALID,1.39043,
2002-01-03, 03:20:00,VALID,918.873,VALID,0,VALID,89.3111,VALID,0,VALID,19.3812,VALID,126,VALID,1.57292,
2002-01-03, 03:21:00,VALID,918.862,VALID,0,VALID,89.2857,VALID,-0.0169808,VALID,19.3742,VALID,127,VALID,1.62578,
2002-01-03, 03:22:00,VALID,918.847,VALID,0,VALID,89.3684,VALID,0,VALID,19.3745,VALID,130,VALID,2.32319,
2002-01-03, 03:23:00,VALID,918.843,VALID,0,VALID,89.3671,VALID,0.0339617,VALID,19.3876,VALID,128,VALID,1.84004,
2002-01-03, 03:24:00,VALID,918.82,VALID,0,VALID,89.1484,VALID,0,VALID,19.3941,VALID,112,VALID,2.21635,
2002-01-03, 03:25:00,VALID,918.799,VALID,0,VALID,88.9436,VALID,0,VALID,19.4324,VALID,107,VALID,2.22598,
2002-01-03, 03:26:00,VALID,918.801,VALID,0,VALID,88.8407,VALID,0,VALID,19.4515,VALID,124,VALID,2.06003,
2002-01-03, 03:27:00,VALID,918.801,VALID,0,VALID,88.8139,VALID,0,VALID,19.4647,VALID,109,VALID,1.84375,
2002-01-03, 03:28:00,VALID,918.796,VALID,0,VALID,88.8852,VALID,-0.0169808,VALID,19.4748,VALID,102,VALID,1.78145,
2002-01-03, 03:29:00,VALID,918.81,VALID,0,VALID,89.1369,VALID,0,VALID,19.4552,VALID,101,VALID,1.89609,
2002-01-03, 03:30:00,VALID,918.813,VALID,0,VALID,89.418,VALID,-0.0339617,VALID,19.4336,VALID,93,VALID,2.10938,
2002-01-03, 03:31:00,VALID,918.832,VALID,0,VALID,89.6405,VALID,0,VALID,19.3941,VALID,124,VALID,1.50352,
2002-01-03, 03:32:00,VALID,918.824,VALID,0,VALID,89.8999,VALID,0,VALID,19.3553,VALID,113,VALID,2.19171,
2002-01-03, 03:33:00,VALID,918.818,VALID,0,VALID,90.0105,VALID,-0.0339617,VALID,19.3267,VALID,120,VALID,1.2418,
2002-01-03, 03:34:00,VALID,918.819,VALID,0,VALID,90.1771,VALID,0.0169808,VALID,19.284,VALID,125,VALID,1.47553,
2002-01-03, 03:35:00,VALID,918.813,VALID,0,VALID,90.3259,VALID,-0.0169808,VALID,19.2326,VALID,121,VALID,1.60391,